GW5625 Weather Reports


time (UTC)temp
C
wind
direction
speed
KPH
gust
KPH
rain 1hr
cm
rain 24hr
cm
rain mn
cm
humidity
%
barometer
mb
20260505124503 11 245 3.2 8.0 0.00 0.43 0.08 94 1009.2
20260505123045 11 239 3.2 12.9 0.00 0.43 0.08 94 1009.2
20260505121551 11 69 1.6 11.3 0.00 0.43 0.08 94 1009.3
20260505120051 11 226 3.2 11.3 0.00 0.43 0.08 94 1009.2
20260505114513 11 200 1.6 9.7 0.00 0.43 0.08 94 1009.2
20260505113027 11 261 1.6 9.7 0.00 0.43 0.08 94 1009.1
20260505111558 11 222 3.2 11.3 0.00 0.43 0.08 94 1009.2
20260505100040 10 310 1.6 11.3 0.03 0.43 0.08 94 1009.1
20260505094504 10 253 1.6 11.3 0.03 0.41 0.05 95 1009.3
20260505093034 10 226 1.6 8.0 0.03 0.41 0.05 95 1009.6
20260505091552 11 238 0.0 3.2 0.03 0.41 0.05 95 1009.9
20260505090107 10 238 0.0 1.6 0.03 0.38 0.03 95 1010.0
20260505084522 10 241 0.0 6.4 0.10 0.38 0.03 95 1010.0
20260505083041 10 258 0.0 3.2 0.15 0.38 0.03 95 1010.0
20260505080054 10 209 0.0 4.8 0.15 0.36 0.36 94 1010.1
20260505074516 10 237 0.0 4.8 0.08 0.28 0.28 94 1010.0
20260505073053 11 236 0.0 4.8 0.03 0.23 0.23 93 1010.2
20260505071606 11 240 0.0 1.6 0.03 0.20 0.20 93 1010.7
20260505070050 11 240 0.0 4.8 0.05 0.20 0.20 93 1010.4
20260505064504 10 240 1.6 4.8 0.08 0.20 0.20 93 1010.2
20260505063033 10 234 0.0 6.4 0.10 0.20 0.20 93 1009.9
20260505061600 10 223 0.0 1.6 0.10 0.18 0.18 92 1010.0
20260505060037 10 223 0.0 3.2 0.08 0.15 0.15 92 1010.1
20260505054504 10 220 1.6 11.3 0.10 0.13 0.13 91 1010.2
20260505053027 11 212 1.6 9.7 0.10 0.10 0.10 92 1010.1
20260505051552 11 227 4.8 12.9 0.08 0.08 0.08 91 1010.0
20260505050113 11 277 1.6 6.4 0.08 0.08 0.08 89 1010.4
20260505041602 12 338 0.0 4.8 0.00 0.00 0.00 88 1010.7
20260505040043 12 217 1.6 3.2 0.00 0.00 0.00 85 1010.3
20260505034507 12 215 1.6 4.8 0.00 0.00 0.00 83 1010.0
20260505033027 13 215 0.0 3.2 0.00 0.00 0.00 82 1009.7
20260505031551 12 215 1.6 4.8 0.00 0.00 0.00 80 1009.5
20260505030042 13 215 3.2 6.4 0.00 0.00 0.00 79 1009.6
20260505024507 13 225 1.6 4.8 0.00 0.00 0.00 79 1009.7
20260505023033 13 224 1.6 6.4 0.00 0.00 0.00 79 1009.7
20260505021550 13 204 0.0 6.4 0.00 0.00 0.00 80 1009.5
20260505020038 13 163 1.6 8.0 0.00 0.00 0.00 81 1009.6
20260505014502 13 181 1.6 8.0 0.00 0.00 0.00 83 1009.9
20260505013028 13 113 0.0 3.2 0.00 0.00 0.00 86 1010.0
20260505011553 13 188 0.0 6.4 0.00 0.00 0.00 88 1010.0
20260505010033 13 212 1.6 14.5 0.00 0.00 0.00 88 1010.0
20260505004558 13 257 1.6 14.5 0.00 0.00 0.00 88 1010.2
20260505003024 13 236 3.2 12.9 0.00 0.00 0.00 87 1010.3
20260505001603 13 246 3.2 12.9 0.00 0.00 0.00 87 1010.2
20260505000040 13 243 4.8 14.5 0.00 0.00 0.00 86 1010.2
20260504234502 13 240 4.8 17.7 0.00 0.00 0.00 85 1010.1
20260504233029 13 204 4.8 16.1 0.00 0.00 0.00 85 1010.0
20260504231550 14 238 1.6 11.3 0.00 0.00 0.00 85 1010.0
20260504230014 14 211 4.8 12.9 0.00 0.00 0.00 84 1010.0
20260504224531 14 231 4.8 14.5 0.00 0.00 0.00 83 1010.2
20260504223046 15 245 6.4 14.5 0.00 0.00 0.00 81 1010.3
20260504221600 15 178 4.8 17.7 0.00 0.00 0.00 81 1010.3
20260504221504 15 274 6.4 17.7 0.00 0.00 0.00 80 1010.3
20260504220049 15 188 4.8 12.9 0.00 0.00 0.00 80 1010.4
20260504214601 15 227 3.2 12.9 0.00 0.00 0.00 82 1010.5
20260504213044 15 185 4.8 14.5 0.00 0.00 0.00 81 1010.4
20260504211549 15 176 6.4 16.1 0.00 0.00 0.00 78 1010.5
20260504210035 16 233 4.8 14.5 0.00 0.00 0.00 78 1010.5
20260504204603 16 278 4.8 17.7 0.00 0.00 0.00 77 1010.6
20260504204501 16 231 6.4 17.7 0.00 0.00 0.00 77 1010.5
20260504203029 16 252 3.2 14.5 0.00 0.00 0.00 78 1010.5
20260504201551 16 208 6.4 19.3 0.00 0.00 0.00 80 1010.2
20260504200037 16 196 11.3 20.9 0.00 0.00 0.00 78 1010.4
20260504194504 16 168 12.9 27.4 0.00 0.00 0.00 78 1010.5
20260504193030 16 179 8.0 16.1 0.00 0.00 0.00 77 1010.5
20260504191552 16 173 8.0 20.9 0.00 0.00 0.00 76 1010.6
20260504190046 16 160 8.0 22.5 0.00 0.00 0.00 76 1010.5
20260504184513 16 167 8.0 20.9 0.00 0.00 0.00 77 1010.7
20260504183033 15 188 8.0 16.1 0.00 0.00 0.00 79 1010.5
20260504181601 15 215 8.0 16.1 0.00 0.00 0.00 78 1010.3
20260504180040 15 159 6.4 19.3 0.00 0.00 0.00 79 1010.2
20260504174506 16 229 9.7 22.5 0.00 0.00 0.00 77 1010.2
20260504173036 15 213 11.3 24.1 0.00 0.00 0.00 80 1010.1
20260504171553 15 180 3.2 14.5 0.00 0.00 0.00 82 1010.1